Flag for USA

Past Weather in Wildwood, New Jersey, USA — Yesterday and Last 2 Weeks

Now
64 °F

Light rain. Clear.


Feels Like: 64 °F
Forecast: 73 / 66 °F
Wind: No wind

Location: Cape May County Airport
Current Time: Sep 25, 2020 at 11:27:31 pm
Latest Report: Sep 25, 2020 at 10:56 pm
Visibility: 10 mi
Pressure30.12 "Hg
Humidity: 84%
Dew Point: 59 °F
Location of WildwoodLocation

Past Weather in Wildwood — Graph

°F

Wildwood Temperature Yesterday

Maximum temperature yesterday: 71 °F (at 12:56 pm)
Minimum temperature yesterday: 59 °F (at 10:56 pm)
Average temperature yesterday: 66 °F

High & Low Weather Summary for the Past Weeks

 TemperatureHumidityPressure
High79 °F (Sep 11, 12:56 pm)100% (Sep 10, 9:56 pm)30.53 "Hg (Sep 10, 9:56 pm)
Low46 °F (Sep 22, 1:56 am)39% (Sep 22, 1:56 pm)29.87 "Hg (Sep 18, 5:28 am)
Average65 °F76%30.16 "Hg
* Reported Sep 10 9:35 pm — Sep 25 9:56 pm, Wildwood. Weather by CustomWeather, © 2020

Note: Actual official high and low records may vary slightly from our data, if they occured in-between our weather recording intervals... More about our weather records

Wildwood Weather History for the Previous 24 Hours

Scroll right to see more
 ConditionsComfort  
Time TempWeatherWind HumidityBarometerVisibility
9:56 pm
Fri, Sep 25
64 °FClear.No wind78%30.13 "Hg10 mi
8:56 pm65 °FClear.7 mph81%30.13 "Hg10 mi
7:56 pm65 °FClear.5 mph87%30.13 "Hg10 mi
6:56 pm66 °FClear.No wind87%30.12 "Hg10 mi
5:56 pm69 °FSunny.5 mph79%30.12 "Hg10 mi
4:56 pm70 °FSunny.7 mph73%30.12 "Hg10 mi
3:56 pm72 °FSunny.10 mph68%30.12 "Hg10 mi
2:56 pm71 °FSunny.6 mph71%30.11 "Hg10 mi
1:56 pm69 °FSunny.8 mph76%30.13 "Hg10 mi
12:56 pm69 °FSunny.7 mph76%30.14 "Hg10 mi
11:56 am68 °FSunny.6 mph82%30.15 "Hg10 mi
10:56 am68 °FSunny.8 mph87%30.16 "Hg10 mi
9:56 am67 °FSunny.3 mph90%30.14 "Hg10 mi
9:11 am64 °FScattered clouds.6 mph100%30.13 "Hg10 mi
8:56 am65 °FPartly sunny.7 mph97%30.14 "Hg9 mi
8:03 am63 °FPartly sunny.N/A100%30.13 "Hg9 mi
7:32 am57 °FScattered clouds.No wind100%30.12 "Hg10 mi
7:15 am57 °FPartly sunny.No wind100%30.12 "Hg10 mi
6:56 am57 °FScattered clouds.No wind100%30.11 "Hg8 mi
5:56 am58 °FClear.No wind100%30.09 "Hg8 mi
4:56 am58 °FClear.No wind97%30.08 "Hg10 mi
4:30 am59 °FPassing clouds.No wind94%30.07 "Hg10 mi
4:22 am59 °FFog.No wind100%30.07 "Hg1 mi
3:56 am59 °FFog.No wind96%30.07 "Hg0 mi
3:34 am59 °FFog.No wind94%30.06 "Hg1 mi
2:56 am61 °FClear.No wind100%30.06 "Hg7 mi
1:56 am63 °FClear.5 mph93%30.07 "Hg10 mi
12:56 am63 °FClear.7 mph93%30.07 "Hg10 mi
11:56 pm
Thu, Sep 24
62 °FClear.6 mph93%30.06 "Hg10 mi
Weather by CustomWeather, © 2020

See weather overview